METEOSAT 10 (MSG 3)

导读 | 豆包AI

METEOSAT 10(又称MSG-3)是欧洲气象卫星组织(EUMETSAT)运营的第二代地球静止气象卫星,于2012年7月5日发射升空。它延续了METEOSAT系列的气象观测使命,配备先进的成像与探测设备,可提供高频次的地球大气、云系和地表观测数据,为欧洲及非洲区域的气象预报、气候监测和极端天气预警提供关键支持。作为MSG系列的第三颗卫星,它大幅提升了观测分辨率和数据时效,至今仍在轨道服役支撑气象业务运行。

基本信息
目录编号:
38552
目录名称:
METEOSAT 10 (MSG 3)
国际标识:
2012-035B
轨道中心:
EARTH
卫星名称:
METEOSAT 10 (MSG 3)
卫星全名:
--
卫星状态:
在轨 (已飞行5048 天)
发射日期:
2012-07-05 UTC
国别 :
(EUME)
星等 :
--
轨道信息
数据来源 国际轨道数据 AOE轨道数据
星历时间 2026-05-01T11:05:14+0800
13小时前
查看轨道信息
2026-04-26T09:00:00+0800
5天前
查看轨道信息
半长轴 42165.429km 42167.448km
偏心率 0.0002171 0.000208
轨道倾角 4.562° 4.551°
近地点辐角 320.451° 323.997°
升交点赤经 61.220° 61.241°
平近点角 243.828° 203.994°
近地点 35778.137km 35780.54km
远地点 35796.447km 35798.082km
周期 1436.132分钟 1436.236分钟
每日圈数 1.002693 1.002621
详细信息
使用方式:
暂无
2D轨道图
3D轨道图
轨道高度分析图
轨道倾角分析图
轨道综合分析图
查看轨道综合分析图